G6212 Weather Reports


Display with metric or nautical units.
time (UTC)temp
F
wind
direction
speed
MPH
gust
MPH
rain 1hr
in
rain 24hr
in
rain mn
in
humidity
%
barometer
mb
20260510022051 78 232 2.0 4.0 0.00 0.01 0.00 69
20260510021551 78 242 2.0 3.0 0.00 0.01 0.00 69
20260510021051 78 225 1.0 2.0 0.00 0.01 0.00 69
20260510020611 78 232 2.0 2.0 0.00 0.01 0.00 69
20260510020051 78 219 2.0 3.0 0.00 0.01 0.00 70
20260510015552 79 219 2.0 2.0 0.00 0.01 0.00 70
20260510015112 79 240 1.0 2.0 0.00 0.01 0.00 69
20260510014551 80 206 2.0 3.0 0.00 0.01 0.00 67
20260510014052 80 171 3.0 4.0 0.00 0.01 0.00 66
20260510013613 80 48 2.0 3.0 0.00 0.01 0.00 65
20260510013052 81 36 3.0 3.0 0.00 0.01 0.00 65
20260510012552 81 38 2.0 3.0 0.00 0.01 0.00 64
20260510012053 80 192 2.0 4.0 0.00 0.01 0.00 64
20260510011552 80 216 4.0 5.0 0.00 0.01 0.00 65
20260510011052 80 127 6.0 8.0 0.00 0.01 0.00 66
20260510010552 80 108 7.0 8.0 0.00 0.01 0.00 64
20260510010052 80 102 5.0 8.0 0.00 0.01 0.00 59
20260510005552 80 99 4.0 6.0 0.00 0.01 0.00 59
20260510005052 80 77 4.0 5.0 0.00 0.01 0.00 59
20260510004552 80 38 3.0 4.0 0.00 0.01 0.00 60
20260510004052 80 74 4.0 5.0 0.00 0.01 0.00 59
20260510003552 80 41 5.0 6.0 0.00 0.01 0.00 60
20260510003052 80 35 5.0 6.0 0.00 0.01 0.00 61
20260510002552 80 29 5.0 7.0 0.00 0.01 0.00 62
20260510002052 80 38 5.0 5.0 0.00 0.01 0.00 61
20260510001634 80 44 4.0 4.0 0.00 0.01 0.00 63
20260510001133 80 56 4.0 4.0 0.00 0.01 0.00 62
20260510000553 80 52 3.0 4.0 0.00 0.01 0.00 64
20260510000053 79 128 5.0 5.0 0.00 0.01 0.00 64
20260509235553 80 121 5.0 5.0 0.00 0.01 0.01 65
20260509235054 83 108 5.0 6.0 0.00 0.01 0.01 61
20260509234553 86 51 6.0 8.0 0.00 0.01 0.01 56
20260509234053 88 44 5.0 6.0 0.00 0.01 0.01 60
20260509233554 88 325 1.0 1.0 0.00 0.01 0.01 65
20260509233053 89 285 1.0 1.0 0.00 0.01 0.01 64
20260509232553 88 325 1.0 1.0 0.00 0.01 0.01 63
20260509232053 89 288 1.0 1.0 0.00 0.01 0.01 64
20260509231553 89 267 1.0 1.0 0.00 0.01 0.01 64
20260509231054 89 283 1.0 1.0 0.00 0.01 0.01 63
20260509230554 89 255 1.0 1.0 0.00 0.01 0.01 63
20260509230054 90 266 1.0 1.0 0.00 0.01 0.01 63
20260509225614 90 268 1.0 1.0 0.00 0.01 0.01 62
20260509225054 91 289 1.0 1.0 0.00 0.01 0.01 61
20260509224554 91 307 1.0 2.0 0.00 0.01 0.01 61
20260509224054 92 263 1.0 1.0 0.00 0.01 0.01 60
20260509223554 93 253 1.0 2.0 0.00 0.01 0.01 59
20260509223054 93 174 1.0 1.0 0.00 0.01 0.01 57
20260509222554 92 87 1.0 2.0 0.00 0.01 0.01 58
20260509222054 92 67 2.0 3.0 0.00 0.01 0.01 59
20260509221555 92 72 2.0 2.0 0.00 0.01 0.01 60
20260509221055 93 77 2.0 3.0 0.00 0.01 0.01 58
20260509220555 93 120 2.0 2.0 0.00 0.01 0.01 59
20260509220055 93 119 1.0 2.0 0.00 0.01 0.01 60
20260509215555 93 163 1.0 2.0 0.00 0.01 0.01 59
20260509215115 92 122 1.0 2.0 0.00 0.01 0.01 60
20260509214555 91 175 1.0 1.0 0.00 0.01 0.01 62
20260509214055 92 168 1.0 2.0 0.00 0.01 0.01 61
20260509213556 92 109 2.0 2.0 0.00 0.01 0.01 60
20260509213055 93 115 2.0 3.0 0.00 0.01 0.01 60
20260509212555 93 136 1.0 2.0 0.00 0.01 0.01 60
20260509212055 92 136 1.0 1.0 0.00 0.01 0.01 61
20260509211556 92 128 1.0 2.0 0.00 0.01 0.01 61
20260509211056 92 97 1.0 2.0 0.00 0.01 0.01 61
20260509210556 91 133 1.0 2.0 0.00 0.01 0.01 62
20260509210056 91 110 1.0 1.0 0.00 0.01 0.01 61
20260509205556 92 136 1.0 1.0 0.00 0.01 0.01 62
20260509205056 92 137 1.0 1.0 0.00 0.01 0.01 61
20260509204556 92 138 1.0 1.0 0.00 0.01 0.01 63
20260509204056 92 137 1.0 1.0 0.00 0.01 0.01 63
20260509203556 92 138 1.0 1.0 0.00 0.01 0.01 62
20260509203056 92 131 1.0 1.0 0.00 0.01 0.01 64
20260509202556 91 136 2.0 2.0 0.00 0.01 0.01 64
20260509202056 91 169 2.0 2.0 0.00 0.01 0.01 66
20260509201556 90 196 2.0 3.0 0.00 0.01 0.01 67
20260509201056 91 64 2.0 3.0 0.00 0.01 0.01 65
20260509200557 91 140 2.0 2.0 0.00 0.01 0.01 66
20260509200057 90 314 2.0 2.0 0.00 0.01 0.01 66
20260509195617 90 314 1.0 2.0 0.00 0.01 0.01 67
20260509195057 90 313 2.0 2.0 0.00 0.01 0.01 67
20260509194557 90 156 2.0 2.0 0.00 0.01 0.01 67
20260509194057 90 145 2.0 2.0 0.00 0.01 0.01 67
20260509193658 90 139 1.0 2.0 0.00 0.01 0.01 66
20260509193057 90 138 1.0 2.0 0.00 0.01 0.01 66
20260509192557 90 137 1.0 1.0 0.00 0.01 0.01 66
20260509192057 90 161 1.0 1.0 0.00 0.01 0.01 67
20260509191558 90 253 1.0 2.0 0.00 0.01 0.01 68
20260509191118 89 76 2.0 2.0 0.00 0.01 0.01 67
20260509190558 88 350 1.0 1.0 0.00 0.01 0.01 67
20260509190058 87 2 1.0 2.0 0.00 0.01 0.01 69
20260509185558 86 14 1.0 1.0 0.00 0.01 0.01 71
20260509185058 86 358 1.0 2.0 0.00 0.01 0.01 71
20260509184558 86 215 2.0 2.0 0.00 0.01 0.01 72
20260509184058 85 204 2.0 3.0 0.00 0.01 0.01 71
20260509183558 85 202 2.0 3.0 0.00 0.01 0.01 72
20260509183058 86 209 2.0 2.0 0.00 0.01 0.01 72
20260509182558 85 275 1.0 1.0 0.00 0.01 0.01 73
20260509182058 85 237 1.0 2.0 0.00 0.01 0.01 73
20260509181558 84 226 1.0 2.0 0.00 0.01 0.01 75
20260509181059 84 197 2.0 3.0 0.00 0.01 0.01 74
20260509180559 84 202 2.0 3.0 0.00 0.01 0.01 74
20260509180059 84 215 2.0 3.0 0.00 0.01 0.01 75
20260509175559 83 208 3.0 4.0 0.00 0.01 0.01 76
20260509175059 83 236 2.0 2.0 0.00 0.01 0.01 77
20260509174639 82 204 3.0 3.0 0.00 0.01 0.01 77
20260509174059 82 214 2.0 3.0 0.00 0.01 0.01 78
20260509173619 82 208 3.0 3.0 0.00 0.01 0.01 77
20260509173100 82 192 3.0 3.0 0.00 0.01 0.01 78
20260509172559 82 160 3.0 4.0 0.00 0.01 0.01 79
20260509172100 82 149 3.0 3.0 0.00 0.01 0.01 79
20260509171600 82 208 2.0 3.0 0.00 0.01 0.01 79
20260509171100 82 185 1.0 3.0 0.00 0.01 0.01 80
20260509170600 82 84 2.0 2.0 0.00 0.01 0.01 81
20260509170100 82 33 2.0 4.0 0.00 0.01 0.01 82
20260509165600 82 35 2.0 3.0 0.00 0.01 0.01 82
20260509165100 82 33 2.0 3.0 0.00 0.01 0.01 83
20260509164600 82 7 1.0 2.0 0.00 0.01 0.01 82
20260509164100 81 7 1.0 2.0 0.00 0.01 0.01 83
20260509163600 81 37 1.0 2.0 0.00 0.01 0.01 84
20260509163101 81 22 0.0 1.0 0.00 0.01 0.01 85
20260509162601 80 329 1.0 1.0 0.00 0.01 0.01 86
20260509162100 80 352 0.0 1.0 0.01 0.01 0.01 86
20260509161600 80 327 1.0 2.0 0.01 0.01 0.01 86
20260509161121 80 318 1.0 2.0 0.01 0.01 0.01 87
20260509160601 79 329 1.0 1.0 0.01 0.01 0.01 88
20260509160121 79 311 1.0 1.0 0.01 0.01 0.01 88
20260509155601 79 346 1.0 1.0 0.01 0.01 0.01 89
20260509155101 78 357 0.0 1.0 0.01 0.01 0.01 90
20260509154601 78 299 1.0 1.0 0.01 0.01 0.01 90
20260509154101 78 268 0.0 1.0 0.01 0.01 0.01 91
20260509153602 77 324 1.0 1.0 0.01 0.01 0.01 91
20260509153122 77 106 1.0 2.0 0.00 0.00 0.00 92
20260509152601 77 37 1.0 2.0 0.00 0.00 0.00 92
20260509152102 77 35 2.0 2.0 0.00 0.00 0.00 93
20260509151602 77 37 2.0 3.0 0.00 0.00 0.00 92
20260509151102 77 41 1.0 2.0 0.00 0.00 0.00 93
20260509150602 77 54 1.0 2.0 0.00 0.00 0.00 94
20260509145602 76 53 2.0 3.0 0.00 0.00 0.00 95
20260509144602 76 52 2.0 3.0 0.00 0.00 0.00 95
20260509144102 76 44 2.0 3.0 0.00 0.00 0.00 96
20260509143602 76 49 2.0 2.0 0.00 0.00 0.00 96
20260509143102 76 28 1.0 2.0 0.00 0.00 0.00 96
20260509142603 76 63 2.0 2.0 0.00 0.00 0.00 96
20260509142102 76 4 1.0 2.0 0.00 0.00 0.00 96
20260509141603 76 324 1.0 1.0 0.00 0.00 0.00 97
20260509141103 75 4 1.0 1.0 0.00 0.00 0.00 97
20260509140603 75 192 1.0 2.0 0.00 0.00 0.00 97
20260509140123 75 50 1.0 2.0 0.00 0.00 0.00 97
20260509135603 75 104 2.0 3.0 0.00 0.00 0.00 97
20260509135103 75 156 1.0 3.0 0.00 0.00 0.00 97
20260509134623 75 160 3.0 3.0 0.00 0.00 0.00 97
20260509134104 75 157 1.0 2.0 0.00 0.00 0.00 97
20260509133603 75 162 1.0 2.0 0.00 0.00 0.00 98
20260509133103 75 244 2.0 3.0 0.00 0.00 0.00 98
20260509132624 75 202 3.0 3.0 0.00 0.00 0.00 98
20260509132104 75 212 1.0 3.0 0.00 0.00 0.00 99
20260509131604 75 192 2.0 3.0 0.00 0.00 0.00 99
20260509131104 75 212 2.0 3.0 0.00 0.00 0.00 99
20260509130604 75 207 2.0 3.0 0.00 0.00 0.00 100
20260509130104 75 192 2.0 3.0 0.00 0.00 0.00 100
20260509125604 75 158 2.0 3.0 0.00 0.00 0.00 100
20260509125104 75 254 1.0 2.0 0.00 0.00 0.00 100
20260509124604 74 208 2.0 3.0 0.00 0.00 0.00 100
20260509124125 74 247 2.0 2.0 0.00 0.00 0.00 100
20260509123605 74 118 1.0 2.0 0.00 0.00 0.00 100
20260509123105 74 206 2.0 2.0 0.00 0.00 0.00 100
20260509122604 74 291 2.0 3.0 0.00 0.00 0.00 100
20260509122125 74 320 1.0 2.0 0.00 0.00 0.00 100
20260509121605 74 291 1.0 2.0 0.00 0.00 0.00 100
20260509121105 74 316 1.0 2.0 0.00 0.00 0.00 100
20260509120605 74 334 1.0 1.0 0.00 0.00 0.00 100
20260509120105 74 323 1.0 2.0 0.00 0.00 0.00 99
20260509115605 74 329 1.0 1.0 0.00 0.00 0.00 99
20260509115106 74 343 1.0 2.0 0.00 0.00 0.00 99
20260509114605 74 340 1.0 2.0 0.00 0.00 0.00 99
20260509114106 74 334 1.0 2.0 0.00 0.00 0.00 99
20260509113606 74 331 1.0 2.0 0.00 0.00 0.00 99
20260509113106 74 344 2.0 2.0 0.00 0.00 0.00 99
20260509112606 74 304 1.0 1.0 0.00 0.00 0.00 99
20260509112106 74 327 1.0 2.0 0.00 0.00 0.00 99
20260509111606 74 349 2.0 2.0 0.00 0.00 0.00 99
20260509111106 74 222 2.0 2.0 0.00 0.00 0.00 99
20260509110606 74 196 3.0 3.0 0.00 0.00 0.00 99
20260509110106 74 264 3.0 3.0 0.00 0.00 0.00 99
20260509105606 74 296 1.0 1.0 0.00 0.00 0.00 99
20260509105126 74 318 1.0 1.0 0.00 0.00 0.00 99
20260509104606 74 335 1.0 2.0 0.00 0.00 0.00 99
20260509104108 74 327 1.0 1.0 0.00 0.00 0.00 99
20260509103606 74 222 2.0 3.0 0.00 0.00 0.00 99
20260509103112 74 224 1.0 2.0 0.00 0.00 0.00 99
20260509102606 75 318 1.0 1.0 0.00 0.00 0.00 99
20260509102107 75 178 1.0 2.0 0.00 0.00 0.00 98
20260509101647 75 261 1.0 2.0 0.00 0.00 0.00 98
20260509101107 75 292 1.0 2.0 0.00 0.00 0.00 98
20260509100627 75 265 1.0 1.0 0.00 0.00 0.00 98
20260509100107 75 286 1.0 1.0 0.00 0.00 0.00 98
20260509095607 75 347 1.0 1.0 0.00 0.00 0.00 98
20260509095107 75 323 1.0 1.0 0.00 0.00 0.00 98
20260509094607 75 337 1.0 1.0 0.00 0.00 0.00 98
20260509094107 75 332 1.0 1.0 0.00 0.00 0.00 99
20260509093628 75 316 0.0 1.0 0.00 0.00 0.00 99
20260509093108 75 335 0.0 1.0 0.00 0.00 0.00 99
20260509092608 75 5 1.0 2.0 0.00 0.00 0.00 99
20260509092108 75 17 1.0 2.0 0.00 0.00 0.00 99
20260509091608 75 60 2.0 2.0 0.00 0.00 0.00 99
20260509091108 75 358 1.0 1.0 0.00 0.00 0.00 99
20260509090608 75 326 1.0 1.0 0.00 0.00 0.00 99
20260509090148 75 279 1.0 1.0 0.00 0.00 0.00 99
20260509085608 75 278 1.0 1.0 0.00 0.00 0.00 99
20260509085108 75 326 1.0 1.0 0.00 0.00 0.00 99
20260509084608 75 323 1.0 1.0 0.00 0.00 0.00 99
20260509084109 75 207 1.0 2.0 0.00 0.00 0.00 99
20260509083629 75 299 1.0 2.0 0.00 0.00 0.00 99
20260509083109 75 190 1.0 2.0 0.00 0.00 0.00 99
20260509082609 75 246 1.0 1.0 0.00 0.00 0.00 99
20260509082129 75 357 1.0 2.0 0.00 0.00 0.00 99
20260509081629 75 7 1.0 2.0 0.00 0.00 0.00 99
20260509081109 75 349 1.0 2.0 0.00 0.00 0.00 99
20260509080609 75 39 1.0 2.0 0.00 0.00 0.00 99
20260509080109 75 75 2.0 2.0 0.00 0.00 0.00 99
20260509075609 75 97 2.0 2.0 0.00 0.00 0.00 99
20260509075109 74 81 2.0 2.0 0.00 0.00 0.00 99
20260509074651 74 127 2.0 2.0 0.00 0.00 0.00 99
20260509074109 74 154 3.0 4.0 0.00 0.00 0.00 99
20260509073609 74 148 3.0 4.0 0.00 0.00 0.00 99
20260509073110 74 162 4.0 5.0 0.00 0.00 0.00 99
20260509072610 74 147 3.0 4.0 0.00 0.00 0.00 99
20260509072150 74 167 3.0 3.0 0.00 0.00 0.00 99
20260509071630 74 153 4.0 5.0 0.00 0.00 0.00 99
20260509071110 74 160 4.0 5.0 0.00 0.00 0.00 99
20260509070650 74 134 3.0 3.0 0.00 0.00 0.00 99
20260509070110 74 125 3.0 4.0 0.00 0.00 0.00 98
20260509065610 74 165 3.0 4.0 0.00 0.00 0.00 98
20260509065110 74 160 3.0 5.0 0.00 0.00 0.00 98
20260509064611 74 155 3.0 4.0 0.00 0.00 0.00 98
20260509064110 74 76 2.0 2.0 0.00 0.00 0.00 98
20260509063631 74 106 2.0 2.0 0.00 0.00 0.00 98
20260509063110 74 116 3.0 4.0 0.00 0.00 0.00 98
20260509062611 74 32 2.0 2.0 0.00 0.00 0.00 98
20260509062111 74 77 2.0 3.0 0.00 0.00 0.00 98
20260509061611 74 52 2.0 3.0 0.00 0.00 0.00 98
20260509061111 74 93 2.0 3.0 0.00 0.00 0.00 97
20260509060611 74 72 2.0 3.0 0.00 0.00 0.00 97
20260509060111 74 72 3.0 4.0 0.00 0.00 0.00 97
20260509055611 74 75 2.0 3.0 0.00 0.00 0.00 97
20260509055111 74 48 2.0 3.0 0.00 0.00 0.00 97
20260509054611 74 68 2.0 2.0 0.00 0.00 0.00 97
20260509054112 74 40 3.0 4.0 0.00 0.00 0.00 97
20260509053653 74 80 2.0 3.0 0.00 0.00 0.00 97
20260509053132 74 42 3.0 4.0 0.00 0.00 0.00 97
20260509052612 74 28 3.0 3.0 0.00 0.00 0.00 97
20260509052112 74 33 3.0 3.0 0.00 0.00 0.00 97
20260509051612 74 25 3.0 4.0 0.00 0.00 0.00 97
20260509051112 74 52 3.0 3.0 0.00 0.00 0.00 97
20260509050613 74 54 2.0 3.0 0.00 0.00 0.00 97
20260509050132 74 60 2.0 3.0 0.00 0.00 0.00 97
20260509045612 74 55 3.0 3.0 0.00 0.00 0.00 96
20260509045132 74 34 2.0 3.0 0.00 0.00 0.00 96
20260509044612 74 60 2.0 3.0 0.00 0.00 0.00 96
20260509044112 74 45 3.0 4.0 0.00 0.00 0.00 96
20260509043612 74 30 3.0 3.0 0.00 0.00 0.00 96
20260509043112 74 23 3.0 4.0 0.00 0.00 0.00 96
20260509042633 74 43 2.0 4.0 0.00 0.00 0.00 95
20260509042112 74 36 3.0 3.0 0.00 0.00 0.00 95
20260509041613 74 50 3.0 4.0 0.00 0.00 0.00 95
20260509041113 74 60 2.0 2.0 0.00 0.00 0.00 95
20260509040613 74 66 2.0 2.0 0.00 0.00 0.00 95
20260509040113 74 75 2.0 3.0 0.00 0.00 0.00 95
20260509035613 74 29 2.0 3.0 0.00 0.00 0.00 95
20260509035113 74 37 2.0 3.0 0.00 0.00 0.00 95
20260509034613 74 31 3.0 4.0 0.00 0.00 0.00 95
20260509034113 74 23 3.0 3.0 0.00 0.00 0.00 94
20260509033614 74 34 3.0 4.0 0.00 0.00 0.00 94
20260509033113 74 30 4.0 5.0 0.00 0.00 0.00 94
20260509032613 74 30 3.0 4.0 0.00 0.00 0.00 94
20260509032134 74 32 4.0 5.0 0.00 0.00 0.00 94
20260509031614 74 32 3.0 4.0 0.00 0.00 0.00 94
20260509031134 74 35 3.0 4.0 0.00 0.00 0.00 94
20260509030614 74 39 3.0 4.0 0.00 0.00 0.00 93
20260509030115 74 31 3.0 4.0 0.00 0.00 0.00 93
20260509025614 74 37 3.0 4.0 0.00 0.00 0.00 93
20260509025115 74 26 4.0 4.0 0.00 0.00 0.00 93
20260509024614 74 29 3.0 4.0 0.00 0.00 0.00 94
20260509024134 74 23 3.0 3.0 0.00 0.00 0.00 94
20260509023614 74 27 3.0 3.0 0.00 0.00 0.00 94
20260509023114 74 31 3.0 3.0 0.00 0.00 0.00 94
20260509022614 74 33 3.0 4.0 0.00 0.00 0.00 93